Tracking 30303 objects as of 20-Apr-2025
HD Live streaming from Space Station
objects crossing your sky now

ARIANE 44LP DEB

Track ARIANE 44LP DEB now!
10-day predictions


NORAD ID: 25540
Int'l Code: 1988-109G
Perigee: 363.5 km
Apogee: 26,424.5 km
Inclination: 6.7 °
Period: 460.9 minutes
Semi major axis: 19764 km
RCS: 0.8784 m2 (medium)
Launch date: December 11, 1988
Source: France (FR)
Launch site: FRENCH GUIANA (FRGUI)

Note: This is SATELLITE DEBRIS
Your satellite tracking list
Your tracking list is empty




NASA's NSSDC Master Catalog

Two Line Element Set (TLE):
1 25540U 88109G   25109.58280026  .00008292  00000-0  77572-2 0  9991
2 25540   6.6892 183.4944 6592732 160.9672 245.2188  3.12433463261926
Source of the keplerian elements: AFSPC